Location: *
(46.1866°S, 178.5290°W)
Time: 10:27:08
(UTC+00:00)

NOAA 12 - Pass Details

Date: 19 May 2021
Orbit: 796 x 815 km, 98.5° (Epoch: 12 June)

Event Time Altitude Azimuth Distance (km) Brightness Sun altitude
Rises 06:33:18 0° 169° (S) 3,377 7.2 -21.4°
Reaches altitude 10° 06:35:41 10° 172° (S) 2,436 6.4 -21.8°
Maximum altitude 06:41:01 65° 252° (WSW) 902 4.5 -22.8°
Drops below altitude 10° 06:46:16 10° 332° (NNW) 2,394 6.9 -23.7°
Sets 06:48:35 0° 335° (NNW) 3,314 7.7 -24.1°
